Weather History for Grafton, ND

Change the Weather History Date:

Monday, February 11, 2013

  Actual Average Record
Temperature  
Mean Temperature 18 °F -  
Max Temperature 23 °F 16 °F 47 °F (1977)
Min Temperature 12 °F -1 °F -30 °F (1955)
Degree Days  
Heating Degree Days 48    
Moisture  
Dew Point 13 °F    
Average Humidity 84    
Maximum Humidity 93    
Minimum Humidity 74    
Precipitation  
Precipitation 0.00 in - - ()
Sea Level Pressure  
Sea Level Pressure 29.90 in    
Wind  
Wind Speed 19 mph (NW)    
Max Wind Speed 26 mph    
Max Gust Speed 38 mph    
Visibility 8 miles    
Events Rain , Snow    
Averages and records for this station are not official NWS values.
T = Trace of Precipitation, MM = Missing Value Source: NWS Daily Summary

Daily Weather History Graph

Daily Weather History Graph

Search for Another Location

Airport:

Trip Planner

Search our weather history database for the weather conditions in past years. The results will help you decide how hot, cold, wet, or windy it might be!

Date:

Astronomy

Feb. 11, 2013 Rise Set
Actual Time 7:42 AM CST 5:45 PM CST
Civil Twilight 7:10 AM CST 6:17 PM CST
Nautical Twilight 6:33 AM CST 6:54 PM CST
Astronomical Twilight 5:57 AM CST 7:30 PM CST
Moon 7:56 AM CST (2/11) 7:57 PM CST (2/11)
Length of Visible Light 11h 07m
Length of Day
10h 02m
Waxing Crescent, 3% of the Moon is Illuminated
Feb 11
Waxing Crescent
Feb 17
First Quarter
Feb 25
Full
Mar 4
Last Quarter
Mar 11
New

Hourly Weather History & Observations

Time (CST) Temp. Windchill Dew Point Humidity Pressure Visibility Wind Dir Wind Speed Gust Speed Precip Events Conditions
12:15 AM 21.2 °F 3.9 °F 19.4 °F 93% 29.78 in 2.5 mi North 26.5 mph 34.5 mph N/A Rain Light Freezing Rain
12:35 AM 21.2 °F 4.5 °F 19.4 °F 93% 29.79 in 5.0 mi North 24.2 mph 32.2 mph N/A Rain Light Freezing Rain
12:55 AM 21.2 °F 4.2 °F 19.4 °F 93% 29.79 in 3.0 mi North 25.3 mph 38.0 mph N/A Rain Light Freezing Rain
1:15 AM 23.0 °F 6.3 °F 19.4 °F 86% 29.79 in 3.0 mi North 26.5 mph 36.8 mph N/A Rain Light Freezing Rain
1:35 AM 23.0 °F 6.3 °F 19.4 °F 86% 29.79 in 5.0 mi North 26.5 mph 36.8 mph N/A Rain Light Freezing Rain
1:55 AM 21.2 °F 4.5 °F 19.4 °F 93% 29.80 in 5.0 mi NNW 24.2 mph 33.4 mph N/A Rain Light Freezing Rain
2:15 AM 19.4 °F 1.8 °F 17.6 °F 93% 29.81 in 5.0 mi NNW 25.3 mph 33.4 mph N/A   Overcast
2:35 AM 19.4 °F 2.8 °F 17.6 °F 93% 29.82 in 5.0 mi North 21.9 mph 29.9 mph N/A Rain Light Freezing Rain
2:55 AM 17.6 °F -0.6 °F 15.8 °F 93% 29.83 in 5.0 mi North 25.3 mph 33.4 mph N/A Rain Light Freezing Rain
3:15 AM 17.6 °F 0.1 °F 15.8 °F 93% 29.83 in 4.0 mi NNW 23.0 mph 34.5 mph N/A Rain Light Freezing Rain
3:35 AM 17.6 °F -0.6 °F 15.8 °F 93% 29.84 in 5.0 mi NNW 25.3 mph 33.4 mph N/A   Overcast
3:55 AM 17.6 °F 0.1 °F 14.0 °F 86% 29.84 in 7.0 mi NNW 23.0 mph 31.1 mph N/A   Overcast
4:15 AM 17.6 °F 0.5 °F 14.0 °F 86% 29.85 in 7.0 mi NNW 21.9 mph 27.6 mph N/A Snow Light Snow
4:35 AM 15.8 °F -2.7 °F 14.0 °F 93% 29.86 in 9.0 mi NNW 24.2 mph 32.2 mph N/A   Overcast
4:55 AM 15.8 °F -2.7 °F 14.0 °F 93% 29.86 in 5.0 mi NNW 24.2 mph 28.8 mph N/A   Overcast
5:15 AM 15.8 °F -1.9 °F 12.2 °F 86% 29.87 in 3.0 mi NNW 21.9 mph 32.2 mph N/A Rain Light Freezing Rain
5:55 AM 14.0 °F -4.3 °F 12.2 °F 93% 29.88 in 5.0 mi NNW 21.9 mph 25.3 mph N/A Rain Light Freezing Rain
6:15 AM 14.0 °F -3.9 °F 10.4 °F 86% 29.89 in 5.0 mi NNW 20.7 mph 27.6 mph N/A Snow Light Snow
6:35 AM 14.0 °F -3.9 °F 10.4 °F 86% 29.90 in 6.0 mi NNW 20.7 mph 27.6 mph N/A Rain Light Freezing Rain
6:55 AM 14.0 °F -3.0 °F 10.4 °F 86% 29.91 in 8.0 mi NNW 18.4 mph 27.6 mph N/A Rain Light Freezing Rain
7:15 AM 14.0 °F -3.4 °F 10.4 °F 86% 29.91 in 9.0 mi NNW 19.6 mph 26.5 mph N/A   Overcast
7:35 AM 14.0 °F -3.0 °F 8.6 °F 79% 29.92 in 9.0 mi North 18.4 mph 24.2 mph N/A   Overcast
7:55 AM 12.2 °F -3.7 °F 8.6 °F 85% 29.93 in 6.0 mi NNW 15.0 mph - N/A Snow Light Snow
8:15 AM 12.2 °F -4.8 °F 8.6 °F 85% 29.93 in 7.0 mi North 17.3 mph 20.7 mph N/A Snow Light Snow
8:35 AM 12.2 °F -3.1 °F 8.6 °F 85% 29.94 in 6.0 mi NW 13.8 mph 23.0 mph N/A Snow Light Snow
8:55 AM 12.2 °F -5.3 °F 8.6 °F 85% 29.95 in 5.0 mi NNW 18.4 mph 24.2 mph N/A Snow Light Snow
9:15 AM 14.0 °F -2.5 °F 8.6 °F 79% 29.95 in 8.0 mi NNW 17.3 mph 21.9 mph N/A Snow Light Snow
9:35 AM 14.0 °F -3.0 °F 8.6 °F 79% 29.96 in 8.0 mi NNW 18.4 mph 21.9 mph N/A   Overcast
9:55 AM 14.0 °F -2.0 °F 8.6 °F 79% 29.96 in 9.0 mi NNW 16.1 mph - N/A   Overcast
10:15 AM 14.0 °F -2.5 °F 8.6 °F 79% 29.96 in 9.0 mi NNW 17.3 mph 20.7 mph N/A   Overcast
10:35 AM 14.0 °F -1.4 °F 10.4 °F 86% 29.96 in 10.0 mi NNW 15.0 mph 20.7 mph N/A   Overcast
10:55 AM 15.8 °F -0.2 °F 10.4 °F 79% 29.97 in 10.0 mi NNW 17.3 mph 20.7 mph N/A   Overcast
11:15 AM 15.8 °F 0.9 °F 10.4 °F 79% 29.97 in 10.0 mi NNW 15.0 mph - N/A Snow Light Snow
11:35 AM 15.8 °F 0.9 °F 10.4 °F 79% 29.98 in 10.0 mi NNW 15.0 mph 20.7 mph N/A   Overcast
11:55 AM 15.8 °F 2.1 °F 12.2 °F 86% 29.98 in 10.0 mi NNW 12.7 mph - N/A   Overcast
12:15 PM 17.6 °F 3.7 °F 12.2 °F 79% 29.97 in 10.0 mi NNW 13.8 mph - N/A   Overcast
12:35 PM 17.6 °F 3.2 °F 14.0 °F 86% 29.96 in 10.0 mi NNW 15.0 mph - N/A   Overcast
12:55 PM 17.6 °F 3.7 °F 14.0 °F 86% 29.96 in 10.0 mi NNW 13.8 mph - N/A   Overcast
1:15 PM 19.4 °F 7.9 °F 14.0 °F 80% 29.96 in 10.0 mi NNW 10.4 mph - N/A   Overcast
1:35 PM 19.4 °F 8.6 °F 14.0 °F 80% 29.96 in 10.0 mi NNW 9.2 mph - N/A   Overcast
1:55 PM 19.4 °F 9.5 °F 14.0 °F 80% 29.96 in 10.0 mi NW 8.1 mph - N/A   Overcast
2:15 PM 21.2 °F 13.6 °F 15.8 °F 80% 29.96 in 10.0 mi NW 5.8 mph - N/A   Overcast
2:35 PM 23.0 °F 15.8 °F 15.8 °F 74% 29.96 in 10.0 mi NW 5.8 mph - N/A   Overcast
2:55 PM 23.0 °F 13.1 °F 15.8 °F 74% 29.95 in 10.0 mi West 9.2 mph - N/A   Overcast
3:15 PM 23.0 °F 13.1 °F 15.8 °F 74% 29.95 in 10.0 mi West 9.2 mph - N/A   Overcast
3:35 PM 23.0 °F 13.1 °F 15.8 °F 74% 29.95 in 10.0 mi West 9.2 mph - N/A   Overcast
3:55 PM 23.0 °F 13.9 °F 15.8 °F 74% 29.95 in 10.0 mi West 8.1 mph - N/A   Mostly Cloudy
4:55 PM 21.2 °F 10.9 °F 17.6 °F 86% 29.95 in 10.0 mi West 9.2 mph - N/A   Overcast
5:15 PM 21.2 °F 11.7 °F 15.8 °F 80% 29.94 in 10.0 mi West 8.1 mph - N/A   Overcast
5:35 PM 23.0 °F 11.7 °F 15.8 °F 74% 29.94 in 10.0 mi WSW 11.5 mph - N/A   Overcast
5:55 PM 19.4 °F 5.5 °F 14.0 °F 80% 29.94 in 10.0 mi West 15.0 mph - N/A   Mostly Cloudy
6:15 PM 17.6 °F 5.0 °F 12.2 °F 79% 29.95 in 10.0 mi West 11.5 mph - N/A   Partly Cloudy
6:35 PM 15.8 °F 4.2 °F 10.4 °F 79% 29.95 in 10.0 mi West 9.2 mph - N/A   Clear
6:55 PM 12.2 °F -0.2 °F 8.6 °F 85% 29.94 in 10.0 mi WSW 9.2 mph - N/A   Clear
7:15 PM 12.2 °F 0.7 °F 8.6 °F 85% 29.94 in 10.0 mi SW 8.1 mph - N/A   Clear
7:35 PM 12.2 °F -0.2 °F 8.6 °F 85% 29.93 in 10.0 mi SW 9.2 mph - N/A   Mostly Cloudy
7:55 PM 14.0 °F 1.2 °F 8.6 °F 79% 29.92 in 10.0 mi SSW 10.4 mph - N/A   Overcast
8:15 PM 14.0 °F 2.0 °F 8.6 °F 79% 29.92 in 10.0 mi SSW 9.2 mph - N/A   Overcast
8:35 PM 15.8 °F 3.4 °F 10.4 °F 79% 29.92 in 10.0 mi SSW 10.4 mph - N/A   Overcast
8:55 PM 15.8 °F 5.1 °F 10.4 °F 79% 29.91 in 10.0 mi SSW 8.1 mph - N/A   Overcast
9:15 PM 15.8 °F 2.7 °F 10.4 °F 79% 29.90 in 10.0 mi South 11.5 mph - N/A   Overcast
9:35 PM 14.0 °F 1.2 °F 10.4 °F 86% 29.89 in 10.0 mi South 10.4 mph - N/A   Scattered Clouds
9:55 PM 12.2 °F -1.8 °F 8.6 °F 85% 29.89 in 10.0 mi South 11.5 mph - N/A   Partly Cloudy
10:15 PM 14.0 °F 0.5 °F 10.4 °F 86% 29.88 in 10.0 mi South 11.5 mph - N/A   Mostly Cloudy
10:35 PM 15.8 °F 2.1 °F 10.4 °F 79% 29.87 in 10.0 mi South 12.7 mph - N/A   Mostly Cloudy
10:55 PM 15.8 °F 1.4 °F 12.2 °F 86% 29.85 in 10.0 mi South 13.8 mph - N/A   Scattered Clouds
11:15 PM 15.8 °F 1.4 °F 12.2 °F 86% 29.85 in 10.0 mi South 13.8 mph - N/A   Clear
11:35 PM 15.8 °F 2.7 °F 12.2 °F 86% 29.84 in 10.0 mi South 11.5 mph - N/A   Clear
11:55 PM 15.8 °F 2.7 °F 12.2 °F 86% 29.83 in 10.0 mi South 11.5 mph - N/A   Scattered Clouds